Regional Weather Roundup
Issued by NWS

Home | Current Version | Previous Version | Graphics & Text | Print | Product List | Glossary On
Versions: 1 2 3 4 5 6 7 8 9 10 11 12 13 14 15 16 17 18 19 20 21 22 23 24 25 26 27 28 29 30 31 32 33 34 35 36 37 38 39 40 41 42 43 44 45 46 47 48 49 50
000
ASUS43 KOAX 211710
RWRNE

WEATHER ROUNDUP FOR NEBRASKA
NATIONAL WEATHER SERVICE OMAHA NE
1100 AM CST SUN DEC 21 2014

NOTES: SATELLITE DATA IS BEING USED TO AUGMENT CLOUD COVER ABOVE
       12000 FEET.
       "FAIR" INDICATES FEW OR NO CLOUDS BELOW 12,000 FEET WITH NO
       SIGNIFICANT WEATHER AND/OR OBSTRUCTIONS TO VISIBILITY.

  * THESE STATIONS DO NOT REPORT WEATHER SUCH AS RAIN...SNOW OR FOG.

NEZ001>004-019>022-054>056-211800-
NEBRASKA PANHANDLE

CITY           SKY/WX    TMP DP  RH WIND       PRES   REMARKS
SCOTTSBLUFF    MOSUNNY   40  27  59 SW3       29.59F
ALLIANCE       MOSUNNY   38  25  59 SW17      29.58F WCI  28
CHADRON        PTSUNNY   38  29  70 S3        29.53F
KIMBALL        CLOUDY    41  25  52 SW12      29.61F
SIDNEY         CLOUDY    37  24  59 SW14      29.64F WCI  28
$$

NEZ057>060-069>072-079>082-211800-
SOUTHWEST NEBRASKA

CITY           SKY/WX    TMP DP  RH WIND       PRES   REMARKS
NORTH PLATTE   SUNNY     36  29  75 S3        29.66F
IMPERIAL       PTSUNNY   40  28  62 S10       29.66F WCI  33
LEXINGTON      SUNNY     39  33  78 S8        29.71F WCI  34
MCCOOK         SUNNY     42  32  67 S10       29.70F
OGALLALA       CLOUDY    29  25  83 W7        29.65F WCI  22
$$

NEZ005>010-023>029-035>040-094-211800-
NORTH CENTRAL NEBRASKA

CITY           SKY/WX    TMP DP  RH WIND       PRES   REMARKS
VALENTINE      SUNNY     36  28  73 S5        29.58F WCI  32
AINSWORTH      SUNNY     36  27  70 S10       29.60F WCI  29
BROKEN BOW     SUNNY     38  32  79 S9        29.67F WCI  31
O`NEILL        CLOUDY    33  32  94 S8        29.67S WCI  27
THEDFORD       SUNNY     45  28  52 S13G20    29.62S
$$

NEZ041-046>049-061>064-073>077-083>087-211800-
SOUTH CENTRAL NEBRASKA

CITY           SKY/WX    TMP DP  RH WIND       PRES   REMARKS
GRAND ISLAND   CLOUDY    35  34  96 S17       29.77S FOG     WCI  25
AURORA         FOG       36  36 100 S18G25    29.77F VSB 3/4 WCI  25
HASTINGS       FOG       35  33  92 S15G22    29.76F VSB 1   WCI  25
HEBRON         CLOUDY    39  37  93 S13G18    29.84F FOG     WCI  32
HOLDREGE       FOG       32  31  96 S16G26    29.75F VSB 1/2 WCI  22
KEARNEY *      CLOUDY    34  30  86 S17       29.75F WCI  23
YORK           FOG       37  37 100 S17G24    29.79F VSB 3/4 WCI  28
$$

NEZ011>018-030>034-042>045-211800-
NORTHEAST NEBRASKA

CITY           SKY/WX    TMP DP  RH WIND       PRES   REMARKS
NORFOLK        CLOUDY    37  35  92 S16G22    29.73S FOG     WCI  28
ALBION         CLOUDY    35  33  93 S9        29.73F FOG     WCI  27
BLAIR          CLOUDY    41  38  89 S18G25    29.82S FOG
COLUMBUS *     CLOUDY    37  34  87 S18       29.79F WCI  27
FREMONT        CLOUDY    41  38  90 S13G21    29.82S
TEKAMAH        CLOUDY    41  38  89 S18       29.82F
WAYNE          CLOUDY    37  36  94 S9        29.75F FOG     WCI  31
$$

NEZ050>053-065>068-078-088>093-211800-
SOUTHEAST NEBRASKA

CITY           SKY/WX    TMP DP  RH WIND       PRES   REMARKS
LINCOLN        CLOUDY    40  37  89 S18G26    29.85F FOG     WCI  31
OMAHA EPPLEY   CLOUDY    41  38  89 S20       29.85F
BEATRICE       CLOUDY    39  38  95 S17       29.86F FOG     WCI  30
FALLS CITY     CLOUDY    40  37  89 S17       29.91F WCI  31
NEBRASKA CITY  CLOUDY    40  40  98 S18       29.88F FOG     WCI  31
PLATTSMOUTH    CLOUDY    39  37  93 S15       29.86F FOG     WCI  31
$$

NEZ044-045-051>053-067-211800-
OMAHA AREA

CITY           SKY/WX    TMP DP  RH WIND       PRES   REMARKS
OMAHA EPPLEY   CLOUDY    41  38  89 S20       29.85F
BLAIR          CLOUDY    41  38  89 S18G25    29.82S FOG
FREMONT        CLOUDY    41  38  90 S13G21    29.82S
MILLARD        CLOUDY    41  38  87 S14       29.85F
OFFUTT AFB     CLOUDY    40  38  91 S15       29.85F WCI  32
PLATTSMOUTH    CLOUDY    39  37  93 S15       29.86F FOG     WCI  31
WAHOO          CLOUDY    40  36  87 S16       29.83S WCI  31
$$


USA.gov is the U.S. government's official web portal to all federal, state and local government web resources and services.